Home   Weather   Messina   Past weeks

Flag for Italy Past Weather in Messina, Italy — Yesterday and Last 2 Weeks

Now
68 °F

Clear.


Feels Like: 68 °F
Forecast: 71 / 81 °F
Wind: 3 mph from Northeast

Location: Reggio Calabria

Current Time: Oct 1, 2016 at 1:55:45 AM

Latest Report: Sep 30, 2016 at 11:50 PM


Visibility: 10 mi

Pressure: 30.15 "Hg

Humidity: 60%

Dew Point: 54 °F

Location of MessinaLocation

Past Weather in Messina — Graph

°F

Messina Temperature Yesterday

Maximum temperature yesterday: 79 °F (at 1:50 PM)
Minimum temperature yesterday: 66 °F (at 6:00 AM)
Average temperature yesterday: 73 °F

High & Low Weather Summary for the Past Weeks

 TemperatureHumidityPressure
High84 °F (Sep 18, 2:50 PM)79% (Sep 16, 5:50 PM)30.33 "Hg (Sep 16, 5:50 PM)
Low64 °F (Sep 23, 6:00 AM)32% (Sep 26, 12:50 PM)29.80 "Hg (Sep 19, 5:50 PM)
Average74 °F59%30.06 "Hg
* Reported Sep 15 11:50 PM — Sep 30 11:50 PM, Messina, Weather by CustomWeather, © 2016

Note: Actual official high and low records may vary slightly from our data, if they occured in-between our weather recording intervals... More about our weather records

Advertising

Messina Weather History for the Previous 24 Hours

Scroll right to see more
 ConditionsComfort  
Time TempWeatherWind HumidityBarometerVisibility
11:50 PM
Fri, Sep 30
68 °FClear.3 mph60%30.15 "Hg10 mi
10:50 PM66 °FClear.6 mph68%30.15 "Hg10 mi
9:50 PM66 °FClear.5 mph73%30.15 "Hg10 mi
8:50 PM70 °FPassing clouds.5 mph64%30.15 "HgN/A
7:50 PM72 °FClear.5 mph65%30.12 "Hg10 mi
6:50 PM73 °FClear.9 mph57%30.12 "Hg10 mi
5:50 PM73 °FPassing clouds.10 mph53%30.15 "HgN/A
4:50 PM75 °FSunny.15 mph50%30.12 "Hg10 mi
3:50 PM77 °FSunny.14 mph44%30.15 "Hg10 mi
2:50 PM79 °FSunny.7 mph48%30.15 "Hg10 mi
1:50 PM79 °FSunny.8 mph45%30.18 "Hg10 mi
12:50 PM77 °FSunny.6 mph47%30.21 "Hg10 mi
11:50 AM75 °FSunny.8 mph54%30.21 "Hg10 mi
10:50 AM77 °FSunny.8 mph51%30.21 "Hg10 mi
9:50 AM75 °FSunny.8 mph57%30.21 "Hg10 mi
8:50 AM72 °FSunny.8 mph69%30.18 "Hg10 mi
7:50 AM70 °FSunny.5 mph69%30.18 "Hg10 mi
6:50 AM68 °FClear.5 mph69%30.18 "Hg10 mi
6:00 AM66 °FClear.1 mph78%30.18 "Hg10 mi
Weather by CustomWeather, © 2016

See weather overviewHow to use our weather pages